Date String (YYYY-MM-DD hh:mm:ss) UTC,Instrument flags,absolute air pressure of the measurement (hPa),sample flow rate (lpm),inlet stack bypass flow (lpm),air temperature of the measurement (°C),ambient temperature measured by the external sensor (°C),aerosol sample conditioner tube jacket temperature (°C),OPC LED temperature (°C),internal box temperature (°C),relative humidity of the measurement (%),span deviation,mass concentration of particles derived from Lorenz-Mie calculation of OPC scattering (μg/m³),mass concentration of particles derived from Lorenz-Mie calculation of OPC scattering (μg/m³),mass concentration of particles derived from Lorenz-Mie calculation of OPC scattering (μg/m³)
DateTimeUTC,F1_M11,P_M11,Q1_M11,Q2_M11,T1_M11,T2_M11,T3_M11,T4_M11,T5_M11,U1_M11,ZSPAN_M11,X2_M11,X0_M11,X1_M11
2023-09-04 20:00:00,SystemResetWarning,0821.6,4.99,000.00,027.5,025.3,000.0,035.8,029.1,26.7,0000.0,0002.27,0004.08,0001.93
2023-09-04 20:01:00,SystemResetWarning,0821.6,5.00,000.00,027.6,025.8,000.0,035.9,029.3,26.4,0000.0,0002.32,0004.16,0001.96
2023-09-04 20:02:00,SystemResetWarning,0821.5,5.00,000.00,027.7,026.2,000.0,035.9,029.4,26.1,0000.0,0002.35,0004.18,0002.00
2023-09-04 20:03:00,SystemResetWarning,0821.6,4.99,000.00,027.7,026.5,000.0,035.9,029.6,26.5,0000.0,0002.39,0004.28,0002.01
2023-09-04 20:04:00,SystemResetWarning,0822.0,4.99,000.00,027.7,025.9,000.0,035.9,029.3,25.9,0000.0,0002.42,0004.29,0002.02
2023-09-04 20:05:00,SystemResetWarning,0822.0,5.01,000.00,027.6,024.6,000.0,035.8,028.8,25.7,0000.0,0002.46,0004.41,0002.03
2023-09-04 20:06:00,SystemResetWarning,0822.0,5.02,000.00,027.6,024.3,000.0,035.8,028.8,24.2,0000.0,0002.48,0004.49,0002.04
2023-09-04 20:07:00,SystemResetWarning,0821.6,4.99,000.00,027.5,024.6,000.0,035.8,028.9,25.1,0000.0,0002.54,0004.80,0002.03
2023-09-04 20:08:00,SystemResetWarning,0821.7,5.00,000.00,027.5,025.0,000.0,035.8,029.0,25.5,0000.0,0002.56,0004.83,0002.03
2023-09-04 20:09:00,SystemResetWarning,0821.5,5.01,000.00,027.6,025.5,000.0,035.8,029.2,25.9,0000.0,0002.55,0003.98,0002.02
2023-09-04 20:10:00,SystemResetWarning,0821.8,5.01,000.00,027.6,025.9,000.0,035.9,029.3,26.8,0000.0,0002.51,0003.93,0002.01
2023-09-04 20:11:00,SystemResetWarning,0821.8,5.00,000.00,027.7,026.3,000.0,035.9,029.5,26.6,0000.0,0002.49,0003.85,0002.01
2023-09-04 20:12:00,SystemResetWarning,0821.9,5.00,000.00,027.7,026.6,000.0,035.9,029.6,26.9,0000.0,0002.47,0003.83,0002.00
2023-09-04 20:13:00,SystemResetWarning,0821.9,4.99,000.00,027.8,026.0,000.0,035.9,029.4,26.4,0000.0,0002.45,0003.79,0001.98
2023-09-04 20:14:00,SystemResetWarning,0821.4,5.00,000.00,027.7,024.7,000.0,035.8,029.0,26.9,0000.0,0002.42,0003.75,0001.96
2023-09-04 20:15:00,SystemResetWarning,0821.4,5.02,000.00,027.6,024.3,000.0,035.8,028.9,25.3,0000.0,0002.38,0003.71,0001.96
2023-09-04 20:16:00,SystemResetWarning,0821.6,4.99,000.00,027.5,024.5,000.0,035.8,028.9,26.7,0000.0,0002.35,0003.59,0001.97
2023-09-04 20:17:00,SystemResetWarning,0822.0,5.00,000.00,027.5,024.9,000.0,035.8,029.0,26.7,0000.0,0002.36,0003.56,0001.97
2023-09-04 20:18:00,SystemResetWarning,0821.9,5.00,000.00,027.6,025.4,000.0,035.8,029.2,25.6,0000.0,0002.31,0003.36,0001.96
2023-09-04 20:19:00,SystemResetWarning,0821.9,5.01,000.00,027.6,025.8,000.0,035.8,029.3,25.2,0000.0,0002.28,0003.47,0001.96
2023-09-04 20:20:00,SystemResetWarning,0821.9,5.00,000.00,027.7,026.2,000.0,035.9,029.4,24.3,0000.0,0002.30,0004.09,0001.95
2023-09-04 20:21:00,SystemResetWarning,0821.9,5.00,000.00,027.7,026.5,000.0,035.9,029.5,23.8,0000.0,0002.33,0004.14,0001.95
2023-09-04 20:22:00,SystemResetWarning,0821.9,4.98,000.00,027.8,026.1,000.0,035.9,029.4,24.7,0000.0,0002.34,0004.16,0001.93
2023-09-04 20:23:00,SystemResetWarning,0822.0,5.00,000.00,027.6,024.7,000.0,035.9,028.8,24.7,0000.0,0002.31,0004.15,0001.92
2023-09-04 20:24:00,SystemResetWarning,0822.0,5.00,000.00,027.5,024.2,000.0,035.8,028.7,23.8,0000.0,0002.29,0004.28,0001.91
2023-09-04 20:25:00,SystemResetWarning,0822.0,5.01,000.00,027.5,024.5,000.0,035.8,028.8,23.7,0000.0,0002.27,0004.23,0001.89
2023-09-04 20:26:00,SystemResetWarning,0821.7,5.00,000.00,027.5,024.8,000.0,035.8,028.9,23.6,0000.0,0002.31,0005.22,0001.89
2023-09-04 20:27:00,SystemResetWarning,0821.6,4.99,000.00,027.5,025.3,000.0,035.8,029.1,23.3,0000.0,0002.32,0005.50,0001.88
2023-09-04 20:28:00,SystemResetWarning,0821.5,5.00,000.00,027.6,025.7,000.0,035.8,029.2,24.1,0000.0,0002.27,0005.54,0001.86
2023-09-04 20:29:00,SystemResetWarning,0821.6,5.01,000.00,027.6,026.1,000.0,035.9,029.4,24.4,0000.0,0002.29,0005.68,0001.85
2023-09-04 20:30:00,SystemResetWarning,0821.9,4.99,000.00,027.7,026.4,000.0,035.9,029.5,24.3,0000.0,0002.31,0005.52,0001.85
2023-09-04 20:31:00,SystemResetWarning,0822.0,4.99,000.00,027.8,026.6,000.0,035.9,029.6,24.4,0000.0,0002.26,0005.62,0001.84
2023-09-04 20:32:00,SystemResetWarning,0822.0,4.99,000.00,027.8,025.5,000.0,035.9,029.2,25.3,0000.0,0002.21,0005.64,0001.82
2023-09-04 20:33:00,SystemResetWarning,0821.4,5.01,000.00,027.6,024.3,000.0,035.8,028.9,25.1,0000.0,0002.21,0005.67,0001.82
2023-09-04 20:34:00,SystemResetWarning,0821.5,5.01,000.00,027.6,024.3,000.0,035.8,028.9,25.1,0000.0,0002.23,0006.97,0001.82
2023-09-04 20:35:00,SystemResetWarning,0822.0,5.01,000.00,027.5,024.6,000.0,035.8,028.9,24.8,0000.0,0002.22,0006.88,0001.82
2023-09-04 20:36:00,SystemResetWarning,0822.0,5.00,000.00,027.5,025.0,000.0,035.8,029.0,24.7,0000.0,0002.28,0007.02,0001.83
2023-09-04 20:37:00,SystemResetWarning,0821.7,5.00,000.00,027.6,025.5,000.0,035.8,029.2,25.4,0000.0,0002.32,0006.43,0001.85
2023-09-04 20:38:00,SystemResetWarning,0821.6,5.00,000.00,027.6,025.9,000.0,035.9,029.3,25.0,0000.0,0002.33,0006.02,0001.85
2023-09-04 20:39:00,SystemResetWarning,0821.7,5.00,000.00,027.7,026.2,000.0,035.9,029.4,25.3,0000.0,0002.37,0006.01,0001.87
2023-09-04 20:40:00,SystemResetWarning,0821.8,5.00,000.00,027.7,026.4,000.0,035.9,029.5,24.8,0000.0,0002.37,0005.87,0001.88
2023-09-04 20:41:00,SystemResetWarning,0821.7,4.98,000.00,027.7,025.5,000.0,035.9,029.2,23.5,0000.0,0002.30,0005.68,0001.88
2023-09-04 20:42:00,SystemResetWarning,0821.7,5.01,000.00,027.6,024.4,000.0,035.8,028.7,23.9,0000.0,0002.30,0005.28,0001.88
2023-09-04 20:43:00,SystemResetWarning,0821.7,5.02,000.00,027.5,024.2,000.0,035.8,028.7,24.9,0000.0,0002.32,0005.10,0001.87
2023-09-04 20:44:00,SystemResetWarning,0821.7,4.99,000.00,027.4,024.5,000.0,035.8,028.8,23.8,0000.0,0002.27,0004.99,0001.87
2023-09-04 20:45:00,SystemResetWarning,0821.6,5.00,000.00,027.5,024.9,000.0,035.8,028.9,18.1,0000.0,0002.23,0003.64,0001.86
2023-09-04 20:46:00,SystemResetWarning,0821.6,5.00,000.00,027.5,025.3,000.0,035.8,029.1,17.4,0000.0,0002.26,0003.55,0001.86
2023-09-04 20:47:00,SystemResetWarning,0821.6,5.00,000.00,027.6,025.8,000.0,035.8,029.2,18.3,0000.0,0002.27,0003.51,0001.86
2023-09-04 20:48:00,SystemResetWarning,0821.7,5.00,000.00,027.6,026.1,000.0,035.9,029.4,17.3,0000.0,0002.18,0003.42,0001.84
2023-09-04 20:49:00,SystemResetWarning,0821.7,4.99,000.00,027.7,026.4,000.0,035.9,029.5,17.1,0000.0,0002.18,0003.46,0001.83
2023-09-04 20:50:00,SystemResetWarning,0821.7,4.99,000.00,027.7,026.3,000.0,035.9,029.4,17.4,0000.0,0002.19,0003.48,0001.82
2023-09-04 20:51:00,SystemResetWarning,0821.7,5.00,000.00,027.7,024.9,000.0,035.8,028.9,18.3,0000.0,0002.18,0003.43,0001.82
2023-09-04 20:52:00,SystemResetWarning,0821.6,5.00,000.00,027.5,024.1,000.0,035.8,028.7,19.4,0000.0,0002.18,0003.39,0001.82
2023-09-04 20:53:00,SystemResetWarning,0821.6,5.00,000.00,027.5,024.2,000.0,035.7,028.7,20.1,0000.0,0002.20,0003.37,0001.82
2023-09-04 20:54:00,SystemResetWarning,0821.6,5.01,000.00,027.4,024.6,000.0,035.8,028.8,19.7,0000.0,0002.22,0003.12,0001.84
2023-09-04 20:55:00,SystemResetWarning,0821.6,5.02,000.00,027.5,025.0,000.0,035.8,029.0,18.7,0000.0,0002.25,0004.26,0001.84
2023-09-04 20:56:00,SystemResetWarning,0821.6,4.98,000.00,027.5,025.4,000.0,035.8,029.1,19.7,0000.0,0002.28,0005.11,0001.85
2023-09-04 20:57:00,SystemResetWarning,0821.6,5.00,000.00,027.6,025.8,000.0,035.8,029.3,18.3,0000.0,0002.26,0005.05,0001.85
2023-09-04 20:58:00,SystemResetWarning,0821.6,5.01,000.00,027.6,026.2,000.0,035.9,029.4,19.5,0000.0,0002.22,0005.06,0001.83
2023-09-04 20:59:00,SystemResetWarning,0821.7,5.02,000.00,027.7,026.5,000.0,035.9,029.5,18.8,0000.0,0002.21,0005.04,0001.82
